www.pogodaiklimat.ru
Время
(UTC), дата
04 8.12
05 8.12
06 8.12
07 8.12
08 8.12
09 8.12
10 8.12
11 8.12
12 8.12
13 8.12
14 8.12
15 8.12
16 8.12
17 8.12
18 8.12
19 8.12
20 8.12
21 8.12
22 8.12
23 8.12
00 9.12
01 9.12
02 9.12
03 9.12
04 9.12
05 9.12
06 9.12
07 9.12
08 9.12
09 9.12
10 9.12
11 9.12
12 9.12
13 9.12
14 9.12
15 9.12
16 9.12
17 9.12
18 9.12
19 9.12
20 9.12
21 9.12
22 9.12
23 9.12
00 10.12
01 10.12
02 10.12
03 10.12
04 10.12
05 10.12
06 10.12
07 10.12
08 10.12
09 10.12
10 10.12
11 10.12
12 10.12
13 10.12
14 10.12
15 10.12
16 10.12
17 10.12
18 10.12
19 10.12
20 10.12
21 10.12
22 10.12
23 10.12
00 11.12
01 11.12
02 11.12
03 11.12
04 11.12
05 11.12
06 11.12
07 11.12
08 11.12
09 11.12
10 11.12
11 11.12
12 11.12
13 11.12
14 11.12
15 11.12
16 11.12
17 11.12
19 11.12
20 11.12
21 11.12
22 11.12
23 11.12
00 12.12
01 12.12
02 12.12
03 12.12
04 12.12
05 12.12
06 12.12
07 12.12
08 12.12
09 12.12
10 12.12
11 12.12
12 12.12
13 12.12
14 12.12
15 12.12
16 12.12
17 12.12
18 12.12
19 12.12
20 12.12
21 12.12
22 12.12
23 12.12
00 13.12
01 13.12
02 13.12
03 13.12
04 13.12
05 13.12
06 13.12
07 13.12
08 13.12
09 13.12
10 13.12
11 13.12
12 13.12
13 13.12
14 13.12
15 13.12
16 13.12
17 13.12
18 13.12
19 13.12
20 13.12
21 13.12
22 13.12
23 13.12
00 14.12
01 14.12
02 14.12
03 14.12
04 14.12
05 14.12
06 14.12
07 14.12
08 14.12
09 14.12
10 14.12
11 14.12
12 14.12
13 14.12
14 14.12
15 14.12
16 14.12
17 14.12
18 14.12
19 14.12
20 14.12
21 14.12
22 14.12
23 14.12
00 15.12
01 15.12
02 15.12
03 15.12
04 15.12
Ветер
(напр.,м/с)
Видим. Явления Облачность Т
(С)
Тd
(С)
f
(%)
Тe
(С)
Тes
(С)
Комфортность P
(гПа)
Po
(гПа)
Тmin
(С)
Tmax
(С)
R
(мм)
R24
(мм)
S
(см)
Ю 1-2
{2}
50 км 9/0 300 м
[]
-3.0 -3.0 100 -6 -6 977.9 955.9
ЮВ 1-2
{3}
26 км 9/0 300 м
[]
-2.9 -3.0 99 -5 -5 977.7 955.7
СВ 1-1
{2}
50 км {ливн. осадки, снег} 9/9 300 м
[]
-3.2 -3.2 100 -6 -6 977.6 955.7 -3.2 -2.1 <0.5
В 1-2
{2}
30 км 9/0 300 м
[]
-3.3 -3.4 99 -6 -6 977.6 955.6
В 1-2
{2}
50 км 9/0 300 м
[]
-3.3 -3.4 99 -6 -6 977.6 955.6
СЗ 1-1
{2}
25 км слаб. ливневой снег 9/9 300 м
[]
-3.5 -3.6 99 -6 -6 977.9 955.8
ЮВ 1-2
{2}
35 км в посл. час зёрна 9/9 300 м
[]
-3.6 -3.7 99 -6 -6 977.6 955.6
В 1-2
{2}
50 км 9/0 300 м
[]
-3.6 -3.7 99 -6 -6 977.6 955.6
С 1-2
{2}
17 км слаб. ливневой снег 9/9 200 м
[]
-3.6 -3.7 99 -6 -6 978.0 956.0
СВ 1-1
{2}
40 км слаб. снег 9/9 200 м
[]
-3.8 -3.9 99 -6 -6 978.0 956.0
СЗ 1-1
{1}
50 км 10/10 300 м
[]
-4.1 -4.2 99 -7 -7 978.5 956.4
СЗ 1-2
{2}
50 км {ливн. осадки, снег} 10/10 300 м
[]
-4.8 -5.0 98 -7 -7 978.5 956.4
СЗ 1-2
{2}
50 км 10/10 100 м
[]
-5.0 -5.3 98 -8 -8 978.7 956.6
СЗ 1-1
{2}
2300 м слаб. снег 10/10 300 м
[]
-5.5 -5.8 98 -8 -8 978.9 956.7 0.2
СЗ 1-2
{2}
2600 м слаб. ливневой снег 9/9 50 м
[]
-6.5 -6.9 97 -9 -9 979.0 956.7 -6.5 -3.2
С 2-3
{3}
45 км в посл. час снег 10/10 50 м
[]
-5.4 -5.4 100 -10 -10 978.9 956.7
-1
{4}
30 км снежные зёрна 6/4 100 м
[]
-6.8 -7.5 95 979.2 956.9
З 1-1
{1}
27 км слаб. ливневой снег 10/10 300 м
[]
-8.4 -9.0 95 -11 -11 979.4 957.0
-1
{2}
50 км в посл. час зёрна 6/6 1000 м
[]
-9.1 -9.8 95 979.6 957.0
С 2-2
{2}
17 км снежные зёрна 9/4 <50 м
[]
-10.4 -11.2 94 -15 -15 979.2 956.6
С 1-2
{2}
30 км в посл. час снег {ливн. осадки} 10/0 300 м
[]
-9.2 -9.6 97 -12 -12 978.8 956.3
В 1-2
{2}
27 км 10/10 300 м
[]
-8.5 -8.8 98 -11 -11 978.6 956.1
СВ 2-4
{4}
28 км 10/10 200 м
[]
-7.0 -7.3 98 -12 -12 978.2 955.9
СВ 2-2
{4}
24 км 10/10 300 м
[]
-6.9 -7.3 97 -11 -11 977.8 955.5
СВ 2-3
{4}
19 км 10/10 300 м
[]
-6.5 -6.8 98 -11 -11 977.4 955.2
С 2-3
{4}
9000 м слаб. снег 10/10 300 м
[]
-6.4 -6.8 97 -11 -11 977.2 954.9
СВ 2-4
{4}
13 км снежные зёрна {ливн. осадки} 10/10 300 м
[]
-6.3 -6.7 97 -11 -11 977.0 954.8 -10.4 -5.1 <0.5
С 3-5
{5}
23 км снежные кристаллы 10/10 300 м
[]
-6.4 -6.9 96 -12 -12 976.8 954.6
С 2-4
{5}
35 км в посл. час снег 10/10 300 м
[]
-6.4 -6.8 97 -11 -11 977.0 954.8
С 2-4
{5}
9000 м слаб. снег 10/10 200 м
[]
-6.2 -6.6 97 -11 -11 977.1 954.8
С 2-5
{5}
9000 м снежные зёрна 10/0 300 м
[]
-7.0 -7.5 96 -12 -12 977.1 954.8
С 3-7
{7}
4900 м слаб. снег 10/10 300 м
[]
-7.3 -7.8 96 -13 -13 977.2 954.9 0.1
С 3-5
{5}
4600 м слаб. снег 10/10 600 м
[]
-7.3 -7.8 96 -13 -13 977.8 955.5 0.1
С 2-5
{6}
3400 м слаб. снег 10/10 600 м
[]
-7.2 -7.7 96 -12 -12 978.3 956.0 0.1
С 3-5
{7}
2000 м слаб. снег 10/10 600 м
[]
-7.1 -7.6 96 -13 -13 979.2 956.8 0.3
С 4-9
{9}
800 м снег ?/? -6.8 -7.2 97 -14 -14 980.0 957.7 0.7
С 4-8
{9}
500 м снег ?/? -6.6 -6.9 98 -13 -13 981.0 958.7 0.8
С 4-8
{8}
2400 м слаб. снег 10/10 300 м
[]
-6.6 -7.0 97 -13 -13 982.1 959.8 0.5
С 3-7
{9}
5000 м снежные зёрна 10/0 1000 м
[]
-6.7 -7.2 96 -13 -13 983.3 960.9 -7.4 -6.1 0.1
С 3-5
{7}
17 км снежные зёрна 10/9 1500 м
[]
-6.0 -6.4 97 -12 -12 984.3 961.9
СЗ 3-6
{6}
40 км в посл. час зёрна 10/10 2000 м
[]
-6.1 -6.6 96 -12 -12 985.5 963.1
СЗ 3-5
{7}
45 км {снег} 10/10 2000 м
[]
-7.2 -8.1 93 -13 -13 987.1 964.5
СЗ 2-4
{5}
50 км 10/0
[]
-8.9 -10.1 91 -13 -13 988.3 965.6
СЗ 2-3
{4}
50 км 10/10
[]
-10.8 -11.8 92 -15 -15 989.7 966.8
СЗ 2-4
{5}
50 км {снег} 9/0
[]
-11.6 -12.8 91 -16 -16 991.1 968.1
З 3-4
{4}
50 км 9/9
[]
-12.1 -13.2 91 -18 -18 992.5 969.4
З 3-5
{5}
50 км 9/9
[]
-12.2 -13.2 92 -18 -18 993.8 970.7
З 3-5
{5}
50 км 9/6
[]
-11.8 -12.5 95 -18 -18 995.4 972.3
З 2-4
{4}
50 км 1/0
[]
-13.7 -14.9 91 -18 -18 996.7 973.4
СЗ 3-5
{6}
50 км ясно -13.2 -14.0 94 -19 -19 997.7 974.5
СЗ 3-6
{6}
50 км ясно -13.4 -14.3 93 -20 -20 998.6 975.3 -14.3 -5.9 1
СЗ 3-4
{6}
50 км ясно -12.9 -14.0 91 -19 -19 999.8 976.5
З 4-7
{7}
50 км ясно -12.8 -13.7 93 -20 -20 1000.8 977.4
З 4-7
{7}
50 км ясно -12.3 -13.3 92 -19 -19 1001.9 978.6
З 3-6
{8}
50 км слаб. ливневой снег ясно -11.6 -12.8 91 -18 -18 1002.5 979.3
СЗ 3-6
{6}
50 км ясно -12.6 -13.9 90 -19 -19 1003.5 980.2
З 2-5
{6}
50 км {ливн. осадки, снег} ясно -12.8 -14.0 91 -17 -17 1004.5 981.1
З 3-5
{5}
50 км ясно -13.8 -15.1 90 -20 -20 1005.3 981.8
З 3-5
{5}
50 км ясно -14.1 -15.4 90 -21 -21 1006.2 982.6
штиль 0-1
{5}
50 км ясно -16.1 -17.9 86 -16 -16 1006.8 983.1
штиль 0-1
{2}
50 км в посл. час снег ясно -19.2 -21.2 84 -19 -19 1007.7 983.6
ЮВ 1-2
{3}
50 км ясно -21.8 -23.9 83 -25 -25 1008.6 984.2
ЮВ 2-2
{3}
50 км {ливн. осадки, снег} ясно -23.1 -25.4 81 -29 -29 1009.2 984.8 -23.1 -11.4
ЮВ 2-3
{3}
50 км ясно -24.2 -26.4 82 -31 -31 опасность
обморожения
1009.8 985.2
Ю 2-3
{4}
50 км ясно -24.4 -26.6 82 -31 -31 опасность
обморожения
1009.9 985.3
ЮВ 2-2
{3}
50 км ясно -24.8 -27.1 81 -31 -31 опасность
обморожения
1010.1 985.4
ЮВ 2-2
{3}
50 км ясно -25.7 -28.1 80 -32 -32 опасность
обморожения
1010.3 985.6
ЮВ 2-3
{3}
50 км ясно -26.4 -28.9 79 -33 -33 опасность
обморожения
1010.3 985.5
Ю 4-5
{5}
14 км слаб. ливневой снег ясно -26.5 -28.8 81 -37 -37 опасность
обморожения
1010.3 985.5
ЮВ 3-4
{5}
50 км в посл. час снег ясно -24.5 -26.4 84 -33 -33 опасность
обморожения
1010.1 985.5
Ю 2-3
{5}
2500 м слаб. ливневой снег 10/10 50 м
[]
-22.1 -23.6 88 -28 -28 1009.1 984.7
ЮВ 3-5
{5}
9000 м слаб. снег 10/10 <50 м
[]
-17.7 -18.4 94 -25 -25 1008.1 984.2
ЮВ 2-5
{6}
3300 м слаб. снег 10/10 50 м
[]
-16.4 -17.3 93 -22 -22 1007.2 983.4
ЮВ 3-6
{6}
2800 м слаб. снег 10/0 100 м
[]
-16.1 -17.2 91 -23 -23 1006.4 982.7
ЮВ 3-5
{6}
16 км слаб. снег 10/10 100 м
[]
-14.4 -15.4 92 -21 -21 1004.9 981.4 -26.8 -14.4 1
ЮВ 4-8
{8}
3300 м слаб. снег 10/10 200 м
[]
-12.8 -13.7 93 -20 -20 1003.7 980.3
ЮВ 4-8
{8}
4900 м слаб. снег 10/10 600 м
[]
-11.0 -11.7 95 -18 -18 1002.3 979.1 0.3
ЮВ 5-9
{9}
1700 м слаб. снег 10/10 300 м
[]
-9.1 -9.6 96 -17 -17 1000.2 977.2 0.3
ЮВ 5-9
{10}
1200 м слаб. снег 10/10 300 м
[]
-8.0 -8.4 97 -16 -16 998.5 975.7 0.6
ЮВ 5-10
{10}
1100 м снег 10/10 300 м
[]
-6.7 -7.0 98 -14 -14 996.9 974.2 0.8
ЮВ 6-12
{12}
1600 м слаб. снег 10/10 300 м
[]
-5.1 -5.3 98 -13 -13 995.1 972.6 0.9
ЮВ 6-10
{12}
900 м снег ?/? -4.6 -4.9 98 -13 -13 993.9 971.5 1
Ю 5-8
{11}
2500 м слаб. ледяной дождь 10/10 300 м
[]
-4.2 -4.4 99 -11 -11 992.8 970.4 2
Ю 5-9
{11}
6000 м туман местами {снег} 10/10 300 м
[]
-3.6 -3.8 99 -11 -11 991.6 969.3 0.2
Ю 5-11
{11}
3200 м слаб. снег 10/10 200 м
[]
-3.0 -3.1 99 -10 -10 990.6 968.3 0.4
Ю 5-10
{10}
1300 м слаб. снег 10/10 300 м
[]
-2.7 -2.8 99 -10 -10 989.9 967.7 0.3
Ю 6-9
{10}
1700 м слаб. снег ?/? -1.7 -1.7 100 -9 -9 989.8 967.6 0.3
ЮЗ 4-8
{9}
16 км слаб. дождь со снегом 10/10 300 м
[]
-1.0 -1.0 100 -7 -7 991.1 969.0 0.1
ЮЗ 6-12
{12}
20 км {снег, дождь} 10/10 200 м
[]
0.0 0.0 100 -7 -7 992.0 970.0
ЮЗ 7-12
{13}
50 км 9/9 200 м
[]
+0.1 +0.1 100 -7 -7 993.2 971.1
ЮЗ 6-11
{11}
50 км 10/10 200 м
[]
0.0 0.0 100 -7 -7 994.4 972.3
ЮЗ 3-7
{10}
50 км {снег, дождь} 10/10 200 м
[]
-0.1 -0.1 100 -5 -5 995.3 973.1
Ю 3-8
{9}
50 км 10/10 200 м
[]
-0.2 -0.2 100 -5 -5 995.7 973.5
Ю 5-13
{13}
40 км 10/0 100 м
[]
+0.1 +0.1 100 -6 -6 996.0 973.9
Ю 6-10
{11}
10 км 10/0 100 м
[]
+0.5 +0.5 100 -6 -6 996.2 974.1
Ю 2-5
{10}
7000 м морось 10/10 100 м
[]
+0.6 +0.6 100 -3 -3 996.4 974.3
Ю 4-7
{8}
11 км в посл. час морось 10/10 200 м
[]
+0.7 +0.7 100 -5 -5 996.3 974.2 0.1
Ю 5-8
{9}
5000 м морось {ливн. осадки} 10/10 200 м
[]
+0.7 +0.7 100 -6 -6 996.3 974.2 -2.2 +0.9 1
Ю 4-6
{7}
7000 м слаб. ливневой дождь 10/10 200 м
[]
+0.6 +0.6 100 -5 -5 996.5 974.4 0.1
Ю 4-6
{8}
5000 м слаб. дождь со снегом 10/10 100 м
[]
+0.7 +0.7 100 -5 -5 996.7 974.6 0.2
Ю 4-6
{6}
5000 м ливневой дождь 10/10 100 м
[]
+0.7 +0.7 100 -5 -5 996.9 974.8 0.1
Ю 3-5
{8}
4700 м слаб. дождь 10/10 100 м
[]
+0.7 +0.7 100 -4 -4 996.9 974.8 0.1
Ю 3-4
{8}
4400 м слаб. ливневой снег 10/10 100 м
[]
+0.7 +0.7 100 -4 -4 997.0 974.9 0.1
Ю 3-5
{7}
35 км в посл. час дождь со снегом {ливн. осадки} 10/10 360 м
[]
+0.9 +0.9 100 -4 -4 996.9 974.8
Ю 4-6
{7}
23 км ливневой дождь 10/10 300 м
[]
+0.7 +0.7 100 -5 -5 996.9 974.8
Ю 4 40 км в посл. час дождь 10/10 300 м
[]
+0.8 +0.8 100 -5 -5 996.8 974.7
Ю 4-5
{7}
4300 м ливневой дождь 10/10 240 м
[]
+0.6 +0.6 100 -5 -5 996.8 974.7 0.1
Ю 4 6000 м слаб. ливневой дождь 10/10 360 м
[]
+0.8 +0.8 100 -5 -5 996.6 974.5 0.1
Ю 5 5000 м слаб. морось 10/10 270 м
[]
+0.6 +0.6 100 -6 -6 996.4 974.3 0.1
Ю 5-7
{8}
5000 м ливневой дождь 10/10 210 м
[]
+0.9 +0.9 100 -5 -5 996.3 974.2 +0.5 +1.0 0.1
Ю 4 6000 м слаб. ливневой дождь 10/10 180 м
[]
+0.7 +0.7 100 -5 -5 996.1 974.0 0.1
Ю 5-8
{9}
4900 м слаб. дождь 9/9 210 м
[]
+0.8 +0.8 100 -5 -5 996.1 974.0
Ю 4-7
{8}
23 км в посл. час дождь со снегом {ливн. осадки} 9/6 270 м
[]
+0.5 +0.5 100 -5 -5 996.0 973.9 0.1
Ю 4 6000 м слаб. дождь 9/9 210 м
[]
+0.4 +0.4 100 -5 -5 995.8 973.7
Ю 5-8
{8}
3200 м слаб. ливневой дождь 9/9 240 м
[]
+0.2 +0.2 100 -6 -6 995.6 973.5
Ю 4-7
{9}
40 км в посл. час дождь со снегом {ливн. осадки} 9/9 330 м
[]
+0.2 +0.2 100 -6 -6 995.4 973.3 0.1
Ю 3-6
{7}
6000 м слаб. дождь 9/9 300 м
[]
+0.2 0.0 99 -5 -5 995.1 973.0
Ю 4 2900 м слаб. снег 9/9 270 м
[]
0.0 -0.1 99 -6 -6 994.9 972.8 0.3
Ю 3-6
{7}
3500 м слаб. снег {дождь} 9/9 300 м
[]
-0.2 -0.3 99 -5 -5 994.8 972.6 0.3
Ю 3 2700 м слаб. дождь 9/9 270 м
[]
-0.5 -0.6 99 -6 -6 994.6 972.5 0.3
Ю 4 3600 м слаб. снег 9/9 270 м
[]
-0.5 -0.7 99 -6 -6 994.4 972.3 0.2
Ю 4-7
{9}
3200 м слаб. дождь 9/9 300 м
[]
-0.6 -0.7 99 -6 -6 994.5 972.4 -0.6 +1.0 0.3 1
Ю 5 3200 м слаб. снег 9/9 270 м
[]
-0.7 -0.8 99 -7 -7 994.8 972.7 0.2
Ю 4-8
{8}
6000 м слаб. дождь 9/9 330 м
[]
-0.7 -0.9 99 -7 -7 995.3 973.1 0.1
Ю 5-7
{13}
8000 м снежные зёрна {дождь} 9/9 360 м
[]
-0.7 -1.0 98 -7 -7 995.6 973.4
Ю 4-7
{8}
4200 м снежные зёрна 9/9 500 м
[]
-0.8 -1.1 98 -7 -7 995.8 973.6
Ю 4-6
{8}
4000 м снежные зёрна 9/9 300 м
[]
-0.8 -0.9 99 -7 -7 996.0 973.8 0.1
Ю 4-8
{8}
9000 м снежные зёрна {дождь} 9/9 330 м
[]
-0.6 -0.8 99 -6 -6 996.2 974.0 0.1
Ю 4-6
{7}
5000 м снежные зёрна 9/9 480 м
[]
-0.6 -0.7 99 -6 -6 996.6 974.4 0.1
Ю 4-8
{9}
19 км слаб. снег 9/9 270 м
[]
-0.4 -0.6 99 -6 -6 996.8 974.6
Ю 4-7
{8}
2400 м слаб. снег {дождь} 9/9 210 м
[]
-0.3 -0.3 100 -6 -6 997.5 975.4 0.1
Ю 4 3200 м слаб. снег 9/9 540 м
[]
-0.4 -0.4 100 -6 -6 997.7 975.5 0.1
Ю 4-5
{7}
6000 м слаб. снег 9/9 750 м
[]
-0.2 -0.2 100 -6 -6 998.1 975.9 0.1
Ю 3-7
{8}
3600 м переохл. дождь (гололёд) {снег} 9/9 270 м
[]
0.0 0.0 100 -5 -5 998.6 976.5 -0.8 0.0 0.2
Ю 3 3100 м слаб. снег 9/9 360 м
[]
0.0 0.0 100 -5 -5 999.1 976.9 0.1
Ю 5-9
{10}
35 км в посл. час снег 9/9 300 м
[]
+0.2 +0.2 100 -6 -6 999.5 977.3 0.1
Ю 4-7
{9}
45 км {ливн. осадки, снег} 9/9 330 м
[]
+0.1 -0.2 98 -6 -6 1000.1 977.8
Ю 4-7
{7}
12 км слаб. ливневой снег 9/9 240 м
[]
0.0 -0.1 99 -6 -6 1000.6 978.4
Ю 4-6
{7}
18 км 9/9 300 м
[]
+0.1 0.0 99 -6 -6 1001.0 978.7
Ю 3-6
{9}
15 км {ливн. осадки, снег} 9/9 480 м
[]
0.0 -0.3 98 -5 -5 1001.2 978.9
Ю 4-6
{7}
14 км ливневой дождь 9/9 300 м
[]
+0.1 -0.2 98 -6 -6 1001.5 979.3
Ю 3-5
{7}
4500 м слаб. ливневой снег 9/9 300 м
[]
0.0 -0.3 98 -5 -5 1001.8 979.6
Ю 3-6
{6}
18 км в посл. час снег {ливн. осадки} 10/10 200 м
[]
0.0 -0.4 97 -5 -5 1002.0 979.8
Ю 3-6
{6}
20 км в посл. час осадки 10/10 270 м
[]
0.0 -0.3 98 -5 -5 1002.3 980.0
Ю 4-7
{7}
19 км 9/9 270 м
[]
-0.1 -0.4 98 -6 -6 1002.4 980.2
Ю 3-6
{7}
22 км {ливн. осадки, снег} 10/10 300 м
[]
-0.2 -0.6 97 -5 -5 1002.7 980.4 -0.2 +0.2 1
Ю 3 26 км 10/10 330 м
[]
-0.3 -0.7 97 -5 -5 1003.2 980.9
Ю 3-6
{7}
27 км 10/10 300 м
[]
-0.3 -0.7 97 -5 -5 1003.6 981.3
Ю 3-4
{7}
27 км 10/10 330 м
[]
-0.4 -0.8 97 -5 -5 1004.0 981.6
Ю 2-4
{5}
27 км 10/10 300 м
[]
-0.4 -0.8 97 -4 -4 1004.3 981.9
ЮВ 2-3
{4}
24 км 10/10 330 м
[]
-0.5 -0.8 98 -4 -4 1004.0 981.6
Ю 2-5
{5}
30 км 10/10 300 м
[]
-0.4 -0.9 96 -4 -4 1004.1 981.7
ЮВ 2-4
{4}
26 км 10/10 300 м
[]
-0.4 -0.8 97 -4 -4 1004.1 981.8
ЮВ 2-4
{4}
23 км 10/10 270 м
[]
-0.5 -0.7 99 -4 -4 1004.1 981.8
ЮВ 2-4
{4}
21 км 10/10 300 м
[]
-0.4 -0.6 99 -4 -4 1004.3 982.0
ЮВ 2-4
{4}
12 км 10/10 270 м
[]
-0.3 -0.5 99 -4 -4 1004.2 981.9
ЮВ 2-5
{5}
12 км 10/10 180 м
[]
-0.3 -0.4 99 -4 -4 1004.1 981.8
ЮВ 3-5
{5}
18 км 10/10 240 м
[]
-0.2 -0.4 99 -5 -5 1004.0 981.7 -0.5 -0.1
ЮВ 3 29 км 10/10 570 м
[]
-0.3 -0.7 97 -5 -5 1004.1 981.8
ЮВ 3-6
{6}
30 км 10/10 240 м
[]
-0.4 -0.8 97 -5 -5 1004.0 981.7
ЮВ 2-4
{6}
30 км в посл. час дождь {ливн. осадки, туман} 10/10 270 м
[]
-0.4 -0.8 97 -4 -4 1004.1 981.8
ЮВ 3-5
{5}
21 км осадки 10/10 240 м
[]
-0.3 -0.7 97 -5 -5 1003.9 981.6
ЮВ 3-5
{6}
16 км ливневой дождь 10/10 210 м
[]
-0.4 -0.7 98 -5 -5 1003.7 981.4
ЮВ 3-5
{5}
30 км {ливн. осадки, дождь} 9/9 1000 м
[]
-0.5 -0.8 98 -6 -6 1003.5 981.2
ЮВ 3 30 км 10/10 330 м
[]
-0.5 -0.8 98 -6 -6 1003.4 981.0
ЮВ 3-6
{6}
30 км в посл. час осадки 10/10 800 м
[]
-0.6 -1.2 96 -6 -6 1003.2 980.8
ЮВ 3-5
{6}
10 км слаб. снег 10/10 420 м
[]
-0.8 -0.9 99 -6 -6 1003.1 980.8 0.5
ЮВ 3-6
{6}
14 км осадки 10/10 200 м
[]
-0.8 -1.2 97 -6 -6 1003.0 980.7
Местоположение метеостанции Соданкюля (Финляндия): широта 67.37 долгота 26.63 высота над уровнем моря 179 м.
В архиве по умолчанию представлена погода в Соданкюля за последнюю неделю. Архивные данные за месяц целиком и за предыдущие месяцы, начиная с января 2011 года, Вы можете получить, выбрав интересующий диапазон дат из раскрывающегося списка и нажав кнопку "Найти!".
*Определитесь, кто Вы:
Внимание! Время в таблицах - всемирное. Для получения местного времени необходимо прибавить поправку, которая равна 1 ч.
Смотрите также архив погоды в соседних городах и на ближайших метеорологических станциях:
Партнеры нашего сайта:      
Пояснения к столбцам:
  • Ветер - указаны скорость ветра в м/с - средняя за 10 мин, порывы в срок и между сроками (в фигурных скобках) и направление, откуда дует ветер: С - северный,
  • СВ - северо-восточный, В - восточный, ЮВ - юго-восточный, Ю - южный, ЮЗ - юго-западный, З - западный, СЗ - северо-западный.
  • Видимость - горизонтальная дальность видимости в метрах или километрах. При видимости от 1 до 10 км при отсутствии осадков обычно наблюдается дымка, при ухудшении видимости до 1 км и менее - туман. В сухую погоду видимость может ухудшаться дымом, пылью или мглою.
  • Явления - указаны атмосферные явления, наблюдавшиеся в срок или в последний час перед сроком; фигурными скобками обозначены явления, наблюдавшиеся между сроками (за 1-3 часа до срока); квадратными скобками обозначены град или гололедные отложения с указанием их диаметра в мм.
  • Облачность - указаны через наклонную черту общая и нижняя облачность в баллах и высота нижней границы облаков в метрах; квадратными скобками обозначены формы облаков: Ci - перистые, Cs - перисто-слоистые, Cc - перисто-кучевые, Ac - высококучевые, As - высокослоистые, Sc - слоисто-кучевые, Ns - слоисто-дождевые, Cu - кучевые, Cb - кучево-дождевые. Подробнее классификацию облаков см. в Атласе облаков (PDF).
  • T - Температура воздуха - температура, измеренная на высоте 2 м над землей.
  • Td - Температура точки росы - температура, при понижении до которой содержащийся в воздухе водяной пар достигнет насыщения.
  • f - Относительная влажность воздуха - влажноcть воздуха, измеренная на высоте 2 м над землей.
  • Te - Эффективная температура - температура, которую ощущает одетый по сезону человек в тени. Характеристика душности погоды. При расчете учитывается влияние влажности воздуха и скорости ветра на теплоощущения человека.
  • Tes - Эффективная температура на солнце - температура, которую ощущает человек, с поправкой на солнечный нагрев. Характеристика знойности погоды. Зависит от высоты солнца над горизонтом, облачности и скорости ветра. Ночью, в пасмурную погоду, а также при ветре 12 м/с и более поправка равна нулю.
  • P - Атмосферное давление - приведенное к уровню моря атмосферное давление.
  • Po - Атмосферное давление - измеренное на уровне метеостанции атмосферное давление.
  • Tmin - Минимальная температура - минимум температуры воздуха на высоте 2 м над землей.
  • Tmax - Максимальная температура - максимум температуры воздуха на высоте 2 м над землей.
  • R - Количество осадков - Количество выпавших осадков за период времени, мм. При наведении курсора мыши на число - период времени, за который выпало указанное количество осадков.
  • R24 - Количество осадков - Количество выпавших осадков за 24 часа, мм.
  • S - Снежный покров - Высота снежного покрова, см. При наведении курсора мыши на число - состояние снежного покрова и степень покрытия местности в баллах.